Regional Weather Roundup
Issued by NWS

Home | Current Version | Previous Version | Graphics & Text | Print | Product List | Glossary On
Versions: 1 2 3 4 5 6 7 8 9 10 11 12 13 14 15 16 17 18 19 20 21 22 23 24 25 26 27 28 29 30 31 32 33 34 35 36 37 38 39 40 41 42 43 44 45 46 47 48 49 50
000
ASUS43 KBIS 181010
RWRND

NORTH DAKOTA REGIONAL WEATHER ROUNDUP
NATIONAL WEATHER SERVICE BISMARCK ND
500 AM CDT SAT APR 18 2015

NOTE: "FAIR" INDICATES FEW OR NO CLOUDS BELOW 12,000 FEET WITH NO
SIGNIFICANT WEATHER AND/OR OBSTRUCTIONS TO VISIBILITY.


NDZ001>003-009>011-017-181100-
NORTHWEST NORTH DAKOTA

CITY           SKY/WX    TMP DP  RH WIND       PRES   REMARKS
WILLISTON      CLEAR     48  25  40 VRB5      30.01F
MINOT          CLEAR     34  25  69 E6        30.07F
MINOT AFB      CLEAR     33  27  79 SE7       30.07F
$$

NDZ018>021-031>035-040>046-181100-
SOUTHWEST NORTH DAKOTA

CITY           SKY/WX    TMP DP  RH WIND       PRES   REMARKS
BISMARCK       PTCLDY    38  27  64 NE7       30.08F
DICKINSON      PTCLDY    41  27  57 SE12      30.01F
GARRISON         N/A     38  28  67 E8        30.07F
HETTINGER ARPT PTCLDY    29  24  82 N3        30.04F
$$

NDZ004>008-012>016-024-026-027-054-181100-
NORTHEAST NORTH DAKOTA

CITY           SKY/WX    TMP DP  RH WIND       PRES   REMARKS
GRAND FORKS    CLEAR     28  24  85 NE5       30.15F
GRND FRKS AFB  CLEAR     24  21  86 N6        30.15F WCI  17
DEVILS LAKE    CLEAR     36  28  75 E6        30.12F
$$

NDZ022-023-025-028>030-036>039-047>053-181100-
SOUTHEAST NORTH DAKOTA

CITY           SKY/WX    TMP DP  RH WIND       PRES   REMARKS
FARGO          CLEAR     39  23  52 NE7       30.10S
JAMESTOWN      CLEAR     32  24  72 N6        30.09F
$$




USA.gov is the U.S. government's official web portal to all federal, state and local government web resources and services.